Weather Roundup
Issued by NWS Springfield, MO

Home | Current Version | Previous Version | Text Only | Print | Product List | Glossary On
Versions: 1 2 3 4 5 6 7 8 9 10 11 12 13 14 15 16 17 18 19 20 21 22 23 24 25 26 27 28 29 30 31 32 33 34 35 36 37 38 39 40 41 42 43 44 45 46 47 48 49 50
000
NZUS99 KSGF 312307
HRRSGF

HOURLY WEATHER
NATIONAL WEATHER SERVICE SPRINGFIELD MO
600 PM CDT FRI JUL 31 2015

......SGF CWA......

CITY           SKY/WX    TMP DP  RH WIND       PRES   REMARKS
SPRINGFIELD    SUNNY     89  54  30 W7        30.09F
JOPLIN         SUNNY     90  63  40 S54       30.07F HX  91
WEST PLAINS    SUNNY     88  59  37 W5        30.10F
ROLLA          SUNNY     87  58  37 W10       30.07F
OSAGE BEACH    SUNNY     90  63  40 W3        30.07F HX  90
BRANSON        MOSUNNY   90  55  31 CALM      30.10F

......SURROUNDING SGF CWA......

CITY           SKY/WX    TMP DP  RH WIND       PRES   REMARKS
CHANUTE        MOSUNNY   90  69  50 SE7       30.06F HX  94
PARSONS        MOSUNNY   90  74  59 SE5       30.07F HX  99
COFFEYVILLE    MOSUNNY   89  72  56 S9        30.06S HX  96
EMPORIA        SUNNY     90  66  45 MISG      30.07F HX  92
GROVE OK       MOSUNNY   90  63  40 SE7       30.09S HX  90
ROGERS AR      SUNNY     87  62  43 SE6       30.11F
SILOAM SPRINGS MOSUNNY   88  57  35 S5        30.09S
HARRISON AR    SUNNY     87  58  37 CALM      30.09F
NEAR YELLVILLE SUNNY     91  61  35 NE3       30.06F HX  91

......KANSAS AND MISSOURI......

CITY           SKY/WX    TMP DP  RH WIND       PRES   REMARKS
KANSAS CTY INT MOSUNNY   87  69  54 CALM      30.06F HX  91
DOWNTOWN KC    SUNNY     90  68  48 NW6       30.04F HX  94
COLUMBIA       SUNNY     88  64  44 W7        30.06F
SEDALIA        SUNNY     90  58  33 W5        30.07F
ST JOSEPH      SUNNY     88  74  63 VRB5      30.04F HX  96
ST LOUIS       MOSUNNY   93  60  33 N8        30.03F HX  93
SPIRIT OF STL  SUNNY     91  62  37 W5        30.01F HX  91
KIRKSVILLE     SUNNY     86  67  52 W3        30.05F
WICHITA        PTSUNNY   90  69  50 S6        30.07F HX  94
TOPEKA         SUNNY     89  65  44 SE3       30.05F HX  91
OLATHE         SUNNY     88  64  44 W5        30.06F

......TENNESSEE......

CITY           SKY/WX    TMP DP  RH WIND       PRES   REMARKS
MEMPHIS        MOSUNNY   91  62  37 N12       30.01F HX  91
NASHVILLE      MOSUNNY   88  59  37 N13       30.01F

......ARKANSAS.......

CITY           SKY/WX    TMP DP  RH WIND       PRES   REMARKS
FAYETTEVILLE   SUNNY     86  59  39 S6        30.09F
FT SMITH       SUNNY     91  53  27 E7        30.03F
LITTLE ROCK    MOSUNNY   93  59  31 E9        30.02F HX  92

......OKLAHOMA.......

CITY           SKY/WX    TMP DP  RH WIND       PRES   REMARKS
TULSA          CLOUDY    87  70  56 E8        30.04F HX  92
PONCA CITY     PTSUNNY   88  72  58 SE10      30.06F HX  94
MCALESTER      SUNNY     91  68  46 E3        30.05F HX  95
OKLAHOMA CITY  TSTM      80  76  87 W7        30.11R

......IOWA............

CITY           SKY/WX    TMP DP  RH WIND       PRES   REMARKS
DES MOINES     MOSUNNY   87  59  38 E8        30.03F
QUAD CITIES    SUNNY     85  53  33 NW16G24   30.00F

......ILLINOIS........

CITY           SKY/WX    TMP DP  RH WIND       PRES   REMARKS
QUINCY         SUNNY     86  65  49 NW7       30.03F
CHICAGO        MOSUNNY   84  49  29 NW18G25   29.93S



USA.gov is the U.S. government's official web portal to all federal, state and local government web resources and services.